[[{"header":{"parameterUnit":"m.s-1","parameterCategory":1,"la1":30.2991,"la2":30.254,"lo1":-89.0895,"lo2":-89.0444,"dy":0.0017,"dx":0.0017,"nx":28,"ny":28,"refTime":"2024-03-23T21:00:00:Z","depth":0,"parameterNumber":2,"parameterNumberName":"U-component_of_WINDS"},"data":[0,0,0,0,0,0,0,0,0,0,0,0,0,0,0,0,0,0,0,0,0,0,0,0,0,0,0,0,0,0,0,0,0,0,0,0,0,0,0,0,0,0,0,0,0,0,0,0,0,0,0,0,0,0,0,0,0,0,-4.571,-4.571,0,-4.5763,-4.5764,-4.5764,-4.5596,-4.5591,-4.5586,-4.5581,-4.5638,-4.5644,-4.5651,0,0,0,0,0,0,0,0,0,0,0,0,0,-4.5463,-4.5468,-4.5709,-4.571,-4.5711,-4.5763,-4.5764,-4.5764,-4.5597,-4.5591,-4.5585,-4.5579,-4.5636,-4.5644,-4.5651,0,0,0,0,0,0,0,0,0,0,0,0,0,-4.5549,-4.547,-4.5709,-4.5634,-4.5627,-4.5763,-4.5764,-4.5764,-4.5599,-4.5591,-4.5583,-4.5576,-4.5634,-4.5643,-4.5652,-4.5864,0,0,-4.5681,-4.5685,0,0,0,0,0,0,0,0,-4.5544,-4.5558,-4.5644,-4.5639,-4.5632,-4.5665,-4.5697,-4.5798,-4.5601,-4.561,-4.5581,-4.5572,-4.5654,-4.5661,-4.5688,-4.5866,-4.5869,-4.5682,-4.5687,-4.5692,-4.5694,0,0,0,0,0,0,0,-4.5538,-4.5555,-4.5731,-4.5646,-4.5638,-4.5597,-4.5601,-4.5716,-4.5674,-4.5608,-4.5596,-4.5605,-4.5649,-4.5679,-4.5688,-4.587,-4.5681,-4.569,-4.5696,-4.5699,-4.6222,-4.623,0,0,0,0,0,0,-4.5542,-4.5551,-4.5729,-4.5732,-4.5568,-4.5608,-4.5612,-4.5662,-4.5672,-4.5666,-4.5611,-4.5597,-4.5667,-4.5677,-4.5689,-4.5937,-4.5691,-4.57,-4.5706,-4.6214,-4.6224,-4.6233,0,0,0,0,0,0,-4.5537,-4.5559,-4.5727,-4.5638,-4.5656,-4.562,-4.5678,-4.5667,-4.5697,-4.5674,-4.5666,-4.565,-4.5661,-4.5676,-4.5821,-4.5936,-4.5704,-4.5713,-4.6204,-4.6217,-4.6228,-4.6434,0,0,0,0,0,0,-4.5531,-4.5559,-4.5639,-4.5641,-4.5662,-4.5859,-4.5685,-4.5674,-4.5714,-4.5696,-4.5708,-4.5703,-4.5656,-4.5808,-4.583,-4.5945,-4.572,-4.6194,-4.621,-4.6224,-4.6417,-4.6452,-4.6482,0,0,0,0,0,-4.5523,-4.5696,-4.5644,-4.5667,-4.5761,-4.5865,-4.5877,-4.5819,-4.5724,-4.5804,-4.5789,-4.5703,-4.592,-4.5824,-4.5848,-4.5967,-4.6186,-4.6205,-4.6223,-4.6402,-4.6445,-4.6481,0,0,0,0,0,0,-4.571,-4.5695,-4.5637,-4.5816,-4.5843,-4.5837,-4.5937,-4.5866,-4.5921,-4.5902,-4.5828,-4.5832,-4.599,-4.5993,-4.5887,-4.6171,-4.6037,-4.6061,-4.6165,-4.6205,-4.6237,-4.6234,-4.5728,0,0,0,0,0,-4.5771,-4.5857,-4.5839,-4.5999,-4.6015,-4.5974,-4.6017,-4.5969,-4.5995,-4.6006,-4.6001,-4.6029,-4.6103,-4.6154,-4.6221,-4.6415,-4.6416,-4.6509,-4.6542,-4.6568,-4.6591,-4.6693,-4.6734,-4.6294,-4.6294,-4.6293,0,0,-4.5901,-4.5903,-4.5962,-4.6036,-4.6052,-4.6142,-4.5985,-4.6087,-4.6153,-4.6021,-4.6158,-4.6155,-4.6182,-4.6352,-4.6427,-4.6359,-4.6712,-4.6592,-4.6614,-4.6621,-4.6716,-4.6758,-4.6795,-4.6306,-4.6304,-4.6302,0,0,-4.6182,-4.6192,-4.6326,-4.6344,-4.6368,-4.6339,-4.6371,-4.6375,-4.6368,-4.6504,-4.6406,-4.6483,-4.6613,-4.6635,-4.6664,-4.6951,-4.6873,-4.6974,-4.7145,-4.7245,-4.728,-4.731,-4.7413,-4.745,-4.6996,-4.6997,-4.6997,0,-4.634,-4.6471,-4.6403,-4.6512,-4.6547,-4.643,-4.6564,-4.6585,-4.6632,-4.6659,-4.6581,-4.674,-4.6749,-4.6923,-4.6993,-4.702,-4.7054,-4.6973,-4.728,-4.731,-4.7338,-4.7434,-4.7473,-4.7009,-4.7008,-4.7006,-4.7005,0,-4.6664,-4.6756,-4.6861,-4.6907,-4.6954,-4.7075,-4.7025,-4.7081,-4.7029,-4.7008,-4.7146,-4.7153,-4.7219,-4.7256,-4.7207,-4.7423,-4.7379,-4.7293,-4.7156,-4.7393,-4.7482,-4.7519,-4.7026,-4.7022,-4.7018,-4.7015,0,0,-4.7067,-4.7071,-4.7111,-4.713,-4.7147,-4.7218,-4.7333,-4.7396,-4.7445,-4.7479,-4.7574,-4.7685,-4.7604,-4.7636,-4.7588,-4.7676,-4.7902,-4.7578,-4.7577,-4.7638,-4.814,-4.8206,-4.825,-4.785,-4.7857,-4.7862,-4.8138,0,-4.7344,-4.754,-4.7482,-4.768,-4.7764,-4.7652,-4.7752,-4.7774,-4.7757,-4.7826,-4.7806,-4.7886,-4.7773,-4.7792,-4.7874,-4.7858,-4.8002,-4.7837,-4.7938,-4.7942,-4.7936,-4.8297,-4.8367,-4.8627,-4.8172,-4.8178,-4.8182,0,-4.7694,-4.7741,-4.7948,-4.7949,-4.7982,-4.8073,-4.8125,-4.8192,-4.8213,-4.8194,-4.823,-4.8163,-4.8275,-4.8137,-4.829,-4.8179,-4.8216,-4.8214,-4.8223,-4.8231,-4.8078,-4.8315,-4.8708,-4.8748,-4.8237,-4.8233,-4.8229,0,-4.7967,-4.8082,-4.822,-4.824,-4.8245,-4.8311,-4.8316,-4.833,-4.8371,-4.8416,-4.8442,-4.85,-4.8533,-4.8579,-4.8529,-4.8433,-4.8691,-4.8548,-4.8678,-4.868,-4.8739,-4.8736,-4.9144,-4.8762,-4.8762,-4.8761,-4.876,0,-4.8283,-4.8414,-4.8343,-4.8428,-4.8571,-4.8501,-4.8644,-4.8636,-4.8649,-4.873,-4.8637,-4.8716,-4.8644,-4.8716,-4.8677,-4.881,-4.8825,-4.8813,-4.8802,-4.8822,-4.8824,-4.8847,-4.8828,-4.8771,-4.8769,-4.8767,-4.8765,0,-4.8614,-4.8572,-4.8714,-4.8707,-4.8707,-4.8813,-4.8806,-4.8884,-4.8859,-4.8963,-4.8983,-4.8945,-4.9024,-4.8978,-4.906,-4.9033,-4.9206,-4.917,-4.9199,-4.919,-4.9323,-4.9311,-4.976,-4.9816,-4.9398,-4.9402,-4.9405,0,-4.8819,-4.8917,-4.8919,-4.8966,-4.8977,-4.9055,-4.9095,-4.903,-4.9076,-4.9107,-4.9181,-4.9252,-4.9306,-4.9437,-4.9417,-4.9478,-4.9442,-4.9596,-4.9451,-4.9468,-4.9445,-4.944,-4.9449,-4.9625,-4.963,-4.9634,-4.9638,0,-4.9188,-4.9161,-4.9223,-4.9278,-4.9329,-4.937,-4.9402,-4.9446,-4.938,-4.9437,-4.9516,-4.9558,-4.964,-4.9712,-4.9763,-4.9768,-4.9693,-4.9683,-4.9716,-4.9739,-4.9752,-4.9747,-4.9279,-4.9673,-4.967,-4.9667,-4.9665,-4.9664,-4.9462,-4.9543,-4.9556,-4.9628,-4.9645,-4.9677,-4.975,-4.9733,-4.9798,-4.9859,-4.9816,-4.991,-4.9926,-4.9988,-5.0002,-5.0074,-5.0013,-5.0061,-5.0073,-5.0087,-5.0105,-4.974,-5.0084,-5.0082,-5.0081,-5.008,-5.008,0,-4.9825,-4.9827,-4.9894,-4.9942,-4.9998,-4.992,-4.9952,-5.0004,-5.0088,-5.0109,-5.0163,-5.0254,-5.0322,-5.0306,-5.0367,-5.0428,-5.0395,-5.0446,-5.0442,-5.0444,-5.0157,-5.0122,-5.0472,-5.0472,-5.0472,-5.0472,-5.0472,-5.0472,-5.0021,-5.0154,-5.0128,-5.0268,-5.0269,-5.036,-5.0384,-5.0413,-5.043,-5.0535,-5.0591,-5.0579,-5.0585,-5.0646,-5.0705,-5.0698,-5.0725,-5.079,-5.0771,-5.0503,-5.0464,-5.0427,-5.0394,-5.0796,-5.0797,-5.1052,-5.1054,-5.1056]},{"header":{"parameterUnit":"m.s-1","parameterCategory":1,"la1":30.2991,"la2":30.254,"lo1":-89.0895,"lo2":-89.0444,"dy":0.0017,"dx":0.0017,"nx":28,"ny":28,"refTime":"2024-03-23T21:00:00:Z","depth":0,"parameterNumber":3,"parameterNumberName":"V-component_of_WINDS"},"data":[0,0,0,0,0,0,0,0,0,0,0,0,0,0,0,0,0,0,0,0,0,0,0,0,0,0,0,0,0,0,0,0,0,0,0,0,0,0,0,0,0,0,0,0,0,0,0,0,0,0,0,0,0,0,0,0,0,0,-2.9179,-2.9179,0,-2.9256,-2.9257,-2.9258,-2.9242,-2.924,-2.9239,-2.9238,-2.9315,-2.9318,-2.9321,0,0,0,0,0,0,0,0,0,0,0,0,0,-2.9013,-2.9017,-2.9179,-2.918,-2.9181,-2.9256,-2.9257,-2.9258,-2.9242,-2.924,-2.9239,-2.9237,-2.9313,-2.9317,-2.9321,0,0,0,0,0,0,0,0,0,0,0,0,0,-2.9087,-2.9018,-2.9178,-2.9182,-2.9183,-2.9256,-2.9257,-2.9258,-2.9242,-2.924,-2.9238,-2.9236,-2.9312,-2.9317,-2.9322,-2.9396,0,0,-2.9337,-2.934,0,0,0,0,0,0,0,0,-2.9083,-2.9093,-2.918,-2.9182,-2.9183,-2.9237,-2.9227,-2.9304,-2.9243,-2.922,-2.9238,-2.9235,-2.929,-2.9297,-2.9316,-2.9399,-2.9403,-2.9338,-2.9341,-2.9343,-2.9345,0,0,0,0,0,0,0,-2.9078,-2.909,-2.9209,-2.9181,-2.9183,-2.9178,-2.9186,-2.9241,-2.9266,-2.9222,-2.9221,-2.923,-2.9291,-2.9311,-2.9318,-2.9404,-2.9338,-2.9342,-2.9345,-2.9347,-2.9548,-2.955,0,0,0,0,0,0,-2.9072,-2.9086,-2.9207,-2.9211,-2.9127,-2.9183,-2.9192,-2.9222,-2.9265,-2.927,-2.9232,-2.9229,-2.9304,-2.9312,-2.932,-2.9408,-2.9343,-2.9348,-2.9351,-2.9546,-2.9549,-2.9551,0,0,0,0,0,0,-2.9069,-2.9083,-2.9203,-2.9148,-2.9163,-2.9188,-2.9222,-2.9224,-2.9245,-2.9273,-2.9277,-2.9249,-2.9302,-2.9313,-2.9377,-2.941,-2.935,-2.9355,-2.9543,-2.9547,-2.955,-2.9584,0,0,0,0,0,0,-2.9064,-2.9082,-2.9111,-2.9149,-2.9166,-2.926,-2.9224,-2.9227,-2.9254,-2.9251,-2.929,-2.9294,-2.9302,-2.9369,-2.9382,-2.9416,-2.9359,-2.954,-2.9545,-2.9549,-2.958,-2.9588,-2.9595,0,0,0,0,0,-2.9058,-2.9118,-2.9113,-2.9127,-2.9204,-2.9262,-2.9271,-2.9279,-2.9257,-2.9286,-2.9303,-2.9293,-2.9405,-2.9376,-2.939,-2.9426,-2.9538,-2.9544,-2.9549,-2.9577,-2.9587,-2.9595,0,0,0,0,0,0,-2.9083,-2.9123,-2.9118,-2.9192,-2.9223,-2.9259,-2.9296,-2.929,-2.9328,-2.9324,-2.9331,-2.934,-2.9404,-2.9421,-2.9389,-2.9498,-2.9468,-2.9476,-2.9485,-2.9495,-2.9502,-2.9496,-2.9363,0,0,0,0,0,-2.9097,-2.9142,-2.9174,-2.9236,-2.9252,-2.9271,-2.9297,-2.93,-2.9333,-2.9346,-2.9368,-2.94,-2.9441,-2.9469,-2.9509,-2.9583,-2.959,-2.9614,-2.9622,-2.9628,-2.9635,-2.9673,-2.9683,-2.9568,-2.9568,-2.9568,0,0,-2.9127,-2.9154,-2.9182,-2.9242,-2.9267,-2.9311,-2.9283,-2.9332,-2.9365,-2.9353,-2.9414,-2.9431,-2.9467,-2.9535,-2.9566,-2.9551,-2.9668,-2.9635,-2.9639,-2.9643,-2.9679,-2.969,-2.97,-2.9572,-2.9571,-2.9571,0,0,-2.9203,-2.9229,-2.9283,-2.9308,-2.9346,-2.9358,-2.9371,-2.9407,-2.9418,-2.9479,-2.9471,-2.9509,-2.9582,-2.9607,-2.9629,-2.9713,-2.9704,-2.9726,-2.9766,-2.9802,-2.9811,-2.9819,-2.9847,-2.9858,-2.9733,-2.9733,-2.9733,0,-2.9235,-2.9303,-2.9311,-2.936,-2.9386,-2.9378,-2.9431,-2.9455,-2.9504,-2.9521,-2.9504,-2.9594,-2.9617,-2.969,-2.971,-2.9729,-2.9742,-2.9721,-2.981,-2.9818,-2.9825,-2.9852,-2.9863,-2.9735,-2.9735,-2.9734,-2.9734,0,-2.9339,-2.9386,-2.9425,-2.9472,-2.9502,-2.9553,-2.9567,-2.9597,-2.9597,-2.961,-2.9671,-2.9699,-2.9743,-2.9761,-2.9762,-2.9833,-2.9823,-2.9808,-2.9777,-2.9838,-2.9864,-2.9874,-2.9738,-2.9737,-2.9737,-2.9736,0,0,-2.9434,-2.9484,-2.9498,-2.9518,-2.9559,-2.9595,-2.9645,-2.9689,-2.9713,-2.9746,-2.9787,-2.9848,-2.9834,-2.9859,-2.9862,-2.9895,-2.9957,-2.9875,-2.9876,-2.9888,-3.0035,-3.0045,-3.0057,-2.9951,-2.9953,-2.9955,-3.0031,0,-2.9513,-2.9602,-2.9609,-2.9688,-2.9731,-2.9723,-2.9766,-2.9794,-2.9807,-2.9844,-2.9858,-2.9901,-2.988,-2.9895,-2.9927,-2.9942,-2.9986,-2.9937,-2.9988,-2.9989,-2.9978,-3.007,-3.0082,-3.0153,-3.0041,-3.0043,-3.0044,0,-2.9617,-2.9654,-2.9737,-2.977,-2.9788,-2.9827,-2.9866,-2.9902,-2.9934,-2.9941,-2.9968,-2.9967,-3.0016,-2.9984,-3.0051,-3.0017,-3.0038,-3.0049,-3.0052,-3.0056,-3.002,-3.0076,-3.0176,-3.0186,-3.006,-3.0059,-3.0058,0,-2.9676,-2.9746,-2.9804,-2.9822,-2.9862,-2.9889,-2.9907,-2.9937,-2.9962,-2.9996,-3.0013,-3.0052,-3.0074,-3.0104,-3.0112,-3.0088,-3.0178,-3.0147,-3.0184,-3.0184,-3.0203,-3.0201,-3.0306,-3.0218,-3.0218,-3.0218,-3.0218,0,-2.9763,-2.9814,-2.9831,-2.9867,-2.9923,-2.993,-2.9985,-3.0001,-3.0027,-3.0064,-3.006,-3.0095,-3.0105,-3.0141,-3.0148,-3.0201,-3.0211,-3.0217,-3.0218,-3.0217,-3.0216,-3.023,-3.0225,-3.0221,-3.022,-3.022,-3.0219,0,-2.9838,-2.9852,-2.9914,-2.9947,-2.9956,-2.9996,-3.0023,-3.0056,-3.0068,-3.0116,-3.0127,-3.0146,-3.0188,-3.02,-3.0251,-3.0255,-3.0317,-3.0314,-3.0307,-3.0306,-3.0341,-3.0337,-3.0458,-3.0473,-3.0377,-3.0378,-3.0379,0,-2.9892,-2.9931,-2.9967,-2.9992,-3.0011,-3.0051,-3.0077,-3.0085,-3.0112,-3.0149,-3.0178,-3.022,-3.0253,-3.0321,-3.0338,-3.0377,-3.0374,-3.0413,-3.0379,-3.0376,-3.0372,-3.0369,-3.0372,-3.0419,-3.042,-3.0421,-3.0422,0,-2.9985,-2.999,-3.0027,-3.0067,-3.0098,-3.0129,-3.0159,-3.018,-3.0191,-3.0221,-3.0265,-3.0291,-3.0342,-3.0383,-3.0421,-3.0438,-3.0432,-3.0433,-3.0443,-3.0441,-3.0435,-3.0437,-3.0323,-3.043,-3.0429,-3.0428,-3.0428,-3.0428,-3.005,-3.0084,-3.0114,-3.0155,-3.0179,-3.0206,-3.0239,-3.0255,-3.0291,-3.0334,-3.0336,-3.0383,-3.0411,-3.0462,-3.0481,-3.0516,-3.0504,-3.0519,-3.0523,-3.0526,-3.0529,-3.043,-3.0523,-3.0523,-3.0523,-3.0523,-3.0523,0,-3.0142,-3.0161,-3.0199,-3.0241,-3.0273,-3.0265,-3.0297,-3.0324,-3.0365,-3.0392,-3.0425,-3.0474,-3.0513,-3.0533,-3.0572,-3.0596,-3.0594,-3.0606,-3.0603,-3.0607,-3.0538,-3.0525,-3.0607,-3.0607,-3.0607,-3.0607,-3.0607,-3.0607,-3.0194,-3.0249,-3.0257,-3.0323,-3.0341,-3.0387,-3.0406,-3.0431,-3.0452,-3.0507,-3.054,-3.0553,-3.0576,-3.0616,-3.0651,-3.0656,-3.067,-3.0683,-3.0686,-3.0621,-3.0612,-3.0604,-3.0591,-3.0686,-3.0686,-3.0752,-3.0752,-3.0753]}]]